Regional Weather Roundup
Issued by NWS

Home | Current Version | Previous Version | Graphics & Text | Print | Product List | Glossary Off
Versions: 1 2 3 4 5 6 7 8 9 10 11 12 13 14 15 16 17 18 19 20 21 22 23 24 25 26 27 28 29 30 31 32 33 34 35 36 37 38 39 40 41 42 43 44 45 46 47 48 49 50

000
ASUS43 KLSX 251557
RWRMO

WEATHER SUMMARY FOR MISSOURI
NATIONAL WEATHER SERVICE SPRINGFIELD MO
1100 AM CDT TUE JUL 25 2017

NOTE: "FAIR" INDICATES FEW OR NO CLOUDS BELOW 12,000 FEET WITH NO
       SIGNIFICANT WEATHER AND/OR OBSTRUCTIONS TO VISIBILITY.
       CURRENT SKY AND/OR WEATHER CONDITIONS ARE NOT AVAILABLE FOR
       CHILLICOTHE AND FARMINGTON.

MOZ001>031-035>038-043-044-053-054-251700-
...NORTHERN AND WESTERN MISSOURI...

CITY           SKY/WX    TMP DP  RH WIND       PRES   REMARKS
KANSAS CTY INT SUNNY     86  71  60 S8        30.08S HX  91
LEE`S SUMMIT   SUNNY     84  73  69 S5        30.09S HX  90
ST JOSEPH      SUNNY     84  74  71 S8        30.06F HX  91
CHILLICOTHE      N/A     81  72  74 S7        30.10F

$$
MOZ066>068-077>081-088>096-101>105-251700-
...SOUTHWEST MISSOURI...

CITY           SKY/WX    TMP DP  RH WIND       PRES   REMARKS
SPRINGFIELD    SUNNY     90  73  57 W8        30.11R HX  98
JOPLIN         SUNNY     91  74  57 S6        30.11S HX 100
BRANSON        MOSUNNY   88  72  58 CALM      30.14R HX  94

$$
MOZ032>034-039>042-045>050-055>058-069>072-251700-
...CENTRAL MISSOURI...

CITY           SKY/WX    TMP DP  RH WIND       PRES   REMARKS
COLUMBIA       NOT AVBL
JEFFERSON CITY SUNNY     83  74  74 CALM      30.09F
ROLLA            N/A    N/A N/A N/A MISG      30.12R
SEDALIA        SUNNY     84  75  74 CALM      30.11S HX  92
WARRENSBURG    SUNNY     82  70  65 CALM      30.08F

$$
MOZ051-052-059>065-251700-
...EAST CENTRAL MISSOURI...

CITY           SKY/WX    TMP DP  RH WIND       PRES   REMARKS
ST LOUIS INTL  MOSUNNY   85  69  58 SE8       30.11S

$$
MOZ072>076-082>087-097>100-106>115-251700-
...SOUTH CENTRAL AND SOUTHEAST MISSOURI...

CITY           SKY/WX    TMP DP  RH WIND       PRES   REMARKS
CAPE GIRARDEAU MOSUNNY   86  77  74 CALM      30.07S HX  97
POPLAR BLUFF   MOSUNNY   87  79  76 S7        30.06S HX 101
WEST PLAINS    SUNNY     91  70  49 VRB7      30.11F HX  96

$$



USA.gov is the U.S. government's official web portal to all federal, state and local government web resources and services.